[[{"header":{"parameterUnit":"m.s-1","parameterCategory":1,"la1":30.2991,"la2":30.254,"lo1":-89.0895,"lo2":-89.0444,"dy":0.0017,"dx":0.0017,"nx":28,"ny":28,"refTime":"2025-08-28T09:00:00:Z","depth":0,"parameterNumber":2,"parameterNumberName":"U-component_of_WINDS"},"data":[0,0,0,0,0,0,0,0,0,0,0,0,0,0,0,0,0,0,0,0,0,0,0,0,0,0,0,0,0,0,0,0,0,0,0,0,0,0,0,0,0,0,0,0,0,0,0,0,0,0,0,0,0,0,0,0,0,0,1.6861,1.6861,0,1.6835,1.6834,1.6834,1.6787,1.6786,1.6785,1.6784,1.6756,1.6756,1.6756,0,0,0,0,0,0,0,0,0,0,0,0,0,1.6868,1.6868,1.6861,1.6861,1.6861,1.6835,1.6834,1.6834,1.6787,1.6786,1.6785,1.6784,1.6756,1.6756,1.6756,0,0,0,0,0,0,0,0,0,0,0,0,0,1.6856,1.6868,1.6861,1.6834,1.6831,1.6835,1.6834,1.6834,1.6787,1.6786,1.6785,1.6783,1.6756,1.6756,1.6756,1.6783,0,0,1.6756,1.6756,0,0,0,0,0,0,0,0,1.6857,1.6856,1.6838,1.6836,1.6833,1.6813,1.6826,1.6817,1.6788,1.6804,1.6784,1.6783,1.6776,1.6774,1.6772,1.6782,1.678,1.6756,1.6756,1.6756,1.6756,0,0,0,0,0,0,0,1.6857,1.6856,1.6851,1.6838,1.6835,1.6822,1.6819,1.6824,1.6798,1.6803,1.6799,1.6797,1.6774,1.6772,1.6771,1.678,1.6756,1.6756,1.6756,1.6756,1.6806,1.6807,0,0,0,0,0,0,1.6863,1.6857,1.6851,1.685,1.6842,1.6823,1.6819,1.6821,1.6797,1.6793,1.6798,1.6795,1.6772,1.6771,1.677,1.6797,1.6756,1.6756,1.6756,1.6805,1.6806,1.6808,0,0,0,0,0,0,1.6863,1.6863,1.6853,1.6853,1.685,1.6824,1.6826,1.6821,1.6819,1.6794,1.6789,1.6801,1.6771,1.677,1.6779,1.6795,1.6756,1.6756,1.6803,1.6805,1.6807,1.6853,0,0,0,0,0,0,1.6863,1.6863,1.6874,1.6853,1.6851,1.6864,1.6827,1.6821,1.6819,1.6815,1.6795,1.6791,1.677,1.6779,1.6779,1.6795,1.6757,1.6802,1.6804,1.6806,1.685,1.6856,1.6862,0,0,0,0,0,1.6864,1.6889,1.6875,1.6874,1.6864,1.6865,1.6863,1.6839,1.6821,1.683,1.6814,1.6791,1.6794,1.6781,1.678,1.6796,1.6801,1.6804,1.6806,1.6847,1.6855,1.6862,0,0,0,0,0,0,1.6912,1.6886,1.687,1.6889,1.6879,1.6857,1.6869,1.6849,1.6844,1.684,1.681,1.6806,1.6819,1.6808,1.6794,1.6819,1.6793,1.6796,1.6825,1.6832,1.6838,1.6839,1.6757,0,0,0,0,0,1.6925,1.6929,1.6905,1.6924,1.692,1.6895,1.6895,1.6877,1.6866,1.6861,1.6846,1.6835,1.6833,1.6832,1.6829,1.6849,1.6842,1.6859,1.6865,1.687,1.6872,1.6878,1.6884,1.6817,1.6817,1.6817,0,0,1.6952,1.6938,1.6942,1.6933,1.6924,1.6927,1.6892,1.6898,1.6899,1.6862,1.6869,1.6857,1.6843,1.6857,1.6862,1.6849,1.6889,1.6874,1.6878,1.6877,1.6881,1.6888,1.6893,1.6819,1.6819,1.6818,0,0,1.7001,1.6993,1.7006,1.6996,1.6982,1.6965,1.6968,1.6948,1.6938,1.6945,1.6917,1.6917,1.6915,1.6905,1.69,1.6942,1.692,1.6942,1.6972,1.6979,1.6984,1.6988,1.7,1.7005,1.6945,1.6945,1.6945,0,1.7036,1.704,1.7015,1.7021,1.7016,1.6983,1.6995,1.6987,1.6972,1.6969,1.6955,1.6949,1.6938,1.6947,1.6957,1.6955,1.6955,1.6944,1.6985,1.6989,1.6993,1.7004,1.7009,1.6948,1.6948,1.6947,1.6947,0,1.7082,1.7085,1.7097,1.7083,1.708,1.7089,1.7063,1.7063,1.7045,1.7029,1.7035,1.702,1.7011,1.7012,1.6996,1.7018,1.701,1.6991,1.6964,1.7003,1.7012,1.7017,1.6951,1.6951,1.695,1.6949,0,0,1.7161,1.7132,1.7136,1.7128,1.7108,1.711,1.7116,1.7107,1.7107,1.7097,1.71,1.7098,1.7079,1.7073,1.7054,1.706,1.709,1.704,1.7039,1.7047,1.711,1.7123,1.7129,1.7076,1.7077,1.7078,1.7111,0,1.7205,1.7214,1.719,1.7205,1.7205,1.7172,1.7177,1.7165,1.715,1.7147,1.713,1.7127,1.7105,1.71,1.7104,1.7086,1.7102,1.7084,1.7076,1.7076,1.7078,1.7134,1.7149,1.718,1.7115,1.7115,1.7116,0,1.7257,1.7249,1.7263,1.724,1.7239,1.7244,1.7233,1.7231,1.7216,1.7204,1.7196,1.7174,1.7176,1.7152,1.7153,1.7141,1.7136,1.7126,1.7127,1.7124,1.7097,1.713,1.719,1.7194,1.7122,1.7122,1.7121,0,1.7309,1.7302,1.7309,1.7303,1.7278,1.7281,1.727,1.7253,1.7249,1.7239,1.7235,1.7226,1.722,1.7212,1.7187,1.7172,1.719,1.7165,1.7178,1.7179,1.7182,1.7182,1.724,1.7183,1.7183,1.7183,1.7183,0,1.7358,1.7368,1.7332,1.7336,1.7344,1.7316,1.7325,1.7311,1.7296,1.7295,1.7267,1.7266,1.7234,1.723,1.721,1.7212,1.7211,1.7199,1.7194,1.7201,1.7202,1.7196,1.7192,1.7184,1.7184,1.7184,1.7184,0,1.7418,1.7395,1.7399,1.7374,1.7367,1.7375,1.7352,1.7353,1.7336,1.7335,1.7333,1.7305,1.7298,1.7273,1.726,1.7246,1.7253,1.7244,1.7259,1.7254,1.7268,1.7266,1.7323,1.7328,1.7271,1.7271,1.7272,0,1.745,1.7456,1.7431,1.7428,1.7418,1.7415,1.7409,1.7381,1.7377,1.7358,1.7361,1.7352,1.7342,1.7332,1.731,1.7299,1.7287,1.7308,1.7286,1.7291,1.7284,1.7283,1.7282,1.7312,1.7313,1.7314,1.7314,0,1.7508,1.7495,1.7489,1.7478,1.7472,1.7462,1.7451,1.745,1.7418,1.7414,1.7406,1.7399,1.7385,1.7375,1.736,1.7347,1.7324,1.7322,1.7323,1.733,1.7336,1.733,1.7269,1.732,1.7319,1.7319,1.7319,1.7318,1.7552,1.7555,1.7537,1.753,1.7518,1.7507,1.7506,1.7488,1.7481,1.7467,1.7451,1.7444,1.7425,1.7402,1.7391,1.7384,1.7372,1.7376,1.7377,1.7377,1.7379,1.7339,1.7382,1.7382,1.7381,1.7381,1.7381,0,1.7606,1.7592,1.7586,1.757,1.7564,1.7544,1.7529,1.7525,1.7519,1.7504,1.7495,1.7484,1.7474,1.745,1.7437,1.7436,1.7425,1.7433,1.7432,1.7428,1.7392,1.7391,1.7442,1.7442,1.7442,1.7442,1.7442,1.7442,1.7633,1.7635,1.762,1.7616,1.7601,1.7595,1.7587,1.7576,1.7563,1.7553,1.7544,1.7529,1.7509,1.7494,1.7482,1.7475,1.7471,1.7482,1.7471,1.7437,1.7432,1.7426,1.7424,1.7481,1.7482,1.7507,1.7508,1.7508]},{"header":{"parameterUnit":"m.s-1","parameterCategory":1,"la1":30.2991,"la2":30.254,"lo1":-89.0895,"lo2":-89.0444,"dy":0.0017,"dx":0.0017,"nx":28,"ny":28,"refTime":"2025-08-28T09:00:00:Z","depth":0,"parameterNumber":3,"parameterNumberName":"V-component_of_WINDS"},"data":[0,0,0,0,0,0,0,0,0,0,0,0,0,0,0,0,0,0,0,0,0,0,0,0,0,0,0,0,0,0,0,0,0,0,0,0,0,0,0,0,0,0,0,0,0,0,0,0,0,0,0,0,0,0,0,0,0,0,5.2831,5.2832,0,5.2878,5.2879,5.288,5.2807,5.2804,5.2802,5.2799,5.2845,5.2849,5.2852,0,0,0,0,0,0,0,0,0,0,0,0,0,5.2673,5.2676,5.2831,5.2832,5.2832,5.2878,5.2879,5.288,5.2807,5.2804,5.2801,5.2798,5.2844,5.2848,5.2852,0,0,0,0,0,0,0,0,0,0,0,0,0,5.2733,5.2677,5.2831,5.2802,5.28,5.2878,5.2879,5.288,5.2808,5.2804,5.28,5.2797,5.2843,5.2848,5.2853,5.2962,0,0,5.2869,5.2872,0,0,0,0,0,0,0,0,5.273,5.2739,5.2805,5.2804,5.2802,5.2833,5.284,5.2907,5.2809,5.2805,5.2799,5.2795,5.2844,5.2849,5.2866,5.2964,5.2966,5.287,5.2873,5.2875,5.2877,0,0,0,0,0,0,0,5.2726,5.2736,5.285,5.2807,5.2804,5.2785,5.2789,5.2852,5.2845,5.2805,5.28,5.2806,5.2842,5.2861,5.2867,5.2966,5.287,5.2874,5.2878,5.288,5.3151,5.3155,0,0,0,0,0,0,5.2726,5.2733,5.2848,5.2851,5.2756,5.2791,5.2795,5.2827,5.2844,5.2843,5.281,5.2803,5.2854,5.286,5.2868,5.2993,5.2875,5.288,5.2883,5.3147,5.3152,5.3156,0,0,0,0,0,0,5.2722,5.2737,5.2846,5.2791,5.2803,5.2797,5.2833,5.283,5.2848,5.2848,5.2845,5.2831,5.2851,5.286,5.2938,5.2994,5.2883,5.2888,5.3142,5.3149,5.3154,5.3246,0,0,0,0,0,0,5.2718,5.2736,5.2779,5.2793,5.2807,5.2918,5.2836,5.2833,5.2858,5.285,5.2867,5.2866,5.2849,5.293,5.2943,5.2999,5.2892,5.3137,5.3145,5.3152,5.3238,5.3255,5.3269,0,0,0,0,0,5.2713,5.2803,5.2781,5.2795,5.286,5.2921,5.2929,5.2908,5.2863,5.2904,5.2903,5.2865,5.2986,5.2939,5.2953,5.3011,5.3134,5.3143,5.3152,5.3231,5.3252,5.3269,0,0,0,0,0,0,5.2796,5.2804,5.278,5.2878,5.2899,5.2909,5.2961,5.2931,5.2965,5.2956,5.2927,5.2932,5.3015,5.3021,5.2968,5.3115,5.3052,5.3064,5.3108,5.3127,5.3142,5.3138,5.2896,0,0,0,0,0,5.2825,5.2875,5.288,5.2965,5.2977,5.2967,5.2993,5.2975,5.2996,5.3004,5.3009,5.303,5.3071,5.31,5.3139,5.3239,5.324,5.3286,5.3301,5.3314,5.3324,5.3374,5.3393,5.3186,5.3186,5.3186,0,0,5.2887,5.2898,5.2931,5.2982,5.2997,5.3047,5.2976,5.3033,5.3069,5.3013,5.3086,5.309,5.311,5.3199,5.3238,5.3207,5.3381,5.3325,5.3335,5.3339,5.3385,5.3405,5.3422,5.3192,5.3191,5.319,0,0,5.3025,5.304,5.311,5.3126,5.3148,5.3141,5.3158,5.3171,5.3172,5.3245,5.3203,5.3245,5.3319,5.3334,5.3352,5.3492,5.3457,5.3506,5.3585,5.3634,5.365,5.3664,5.3712,5.3729,5.3516,5.3517,5.3517,0,5.3098,5.3174,5.3151,5.321,5.3232,5.3183,5.3253,5.3269,5.3303,5.3319,5.3283,5.3373,5.3384,5.3473,5.3507,5.3525,5.3541,5.3503,5.365,5.3664,5.3677,5.3721,5.374,5.3522,5.3521,5.3521,5.352,0,5.3261,5.3314,5.3368,5.3402,5.343,5.3495,5.3479,5.3511,5.349,5.3485,5.3558,5.3569,5.3608,5.3628,5.3609,5.3714,5.3693,5.3655,5.359,5.3703,5.3744,5.3761,5.353,5.3528,5.3526,5.3525,0,0,5.3453,5.3471,5.3491,5.3504,5.3524,5.3564,5.3625,5.3662,5.3688,5.3713,5.3761,5.3824,5.3787,5.3807,5.3789,5.3832,5.3938,5.3787,5.3787,5.3812,5.4052,5.4079,5.4099,5.3916,5.3919,5.3922,5.4049,0,5.3588,5.3693,5.3673,5.3775,5.3821,5.3775,5.3827,5.3844,5.3841,5.3878,5.3874,5.3918,5.3868,5.3879,5.392,5.3917,5.3986,5.3908,5.3958,5.396,5.3952,5.4121,5.4151,5.4271,5.4065,5.4068,5.407,0,5.3759,5.3789,5.3896,5.3905,5.3924,5.3972,5.4003,5.404,5.4057,5.4051,5.4073,5.4045,5.4103,5.4039,5.4117,5.4065,5.4084,5.4086,5.409,5.4092,5.4021,5.4126,5.4309,5.4326,5.4096,5.4094,5.4092,0,5.3884,5.3952,5.4023,5.4036,5.405,5.4084,5.4091,5.4104,5.4127,5.4154,5.4168,5.4202,5.422,5.4246,5.4227,5.4183,5.4307,5.4243,5.4302,5.4302,5.4329,5.4327,5.4515,5.4346,5.4345,5.4345,5.4345,0,5.4036,5.4102,5.4079,5.4123,5.4195,5.417,5.4241,5.4243,5.4255,5.4296,5.4258,5.4298,5.4272,5.4309,5.4295,5.436,5.4369,5.4364,5.4359,5.4366,5.4367,5.4377,5.4367,5.435,5.4349,5.4348,5.4347,0,5.4187,5.4175,5.4249,5.4256,5.4258,5.4311,5.4315,5.4355,5.4348,5.4401,5.4412,5.4401,5.4443,5.4427,5.4471,5.4461,5.4543,5.4529,5.4538,5.4533,5.4592,5.4586,5.4792,5.4816,5.4633,5.4635,5.4637,0,5.4284,5.4333,5.4344,5.4369,5.4379,5.442,5.4443,5.442,5.4444,5.4466,5.4502,5.454,5.4569,5.4637,5.4632,5.4665,5.4649,5.4719,5.4654,5.4658,5.4647,5.4643,5.4647,5.4732,5.4734,5.4736,5.4737,0,5.4455,5.4445,5.448,5.4512,5.454,5.4564,5.4584,5.4607,5.4584,5.4614,5.4655,5.4678,5.4722,5.4759,5.4788,5.4793,5.4761,5.4758,5.4773,5.4779,5.4781,5.4778,5.457,5.4753,5.4751,5.475,5.4749,5.4749,5.458,5.462,5.4633,5.4672,5.4684,5.4704,5.474,5.4737,5.4772,5.4806,5.479,5.4837,5.4849,5.4885,5.4894,5.493,5.4902,5.4925,5.493,5.4935,5.4942,5.4777,5.4935,5.4935,5.4935,5.4934,5.4934,0,5.4746,5.4752,5.4788,5.4816,5.4846,5.4813,5.4834,5.486,5.4902,5.4917,5.4946,5.4992,5.5027,5.5025,5.5057,5.5085,5.5071,5.5094,5.5091,5.5092,5.4966,5.4948,5.5105,5.5105,5.5105,5.5105,5.5105,5.5105,5.4836,5.4902,5.4894,5.4964,5.4969,5.5014,5.5028,5.5045,5.5056,5.5109,5.5138,5.5136,5.5143,5.5175,5.5205,5.5203,5.5215,5.5244,5.5236,5.5118,5.5101,5.5085,5.5068,5.5247,5.5247,5.5358,5.536,5.536]}]]